Weather Roundup
Issued by NWS Springfield, MO

Home | Current Version | Previous Version | Text Only | Print | Product List | Glossary On
Versions: 1 2 3 4 5 6 7 8 9 10 11 12 13 14 15 16 17 18 19 20 21 22 23 24 25 26 27 28 29 30 31 32 33 34 35 36 37 38 39 40 41 42 43 44 45 46 47 48 49 50
000
NZUS99 KSGF 131707
HRRSGF

HOURLY WEATHER
NATIONAL WEATHER SERVICE SPRINGFIELD MO
1100 AM CST SAT FEB 13 2016

......SGF CWA......

CITY           SKY/WX    TMP DP  RH WIND       PRES   REMARKS
SPRINGFIELD    SUNNY     28  -1  28 E9        30.51F WCI  19
JOPLIN         SUNNY     32   3  29 SE10      30.50F WCI  24
WEST PLAINS    SUNNY     26  -2  29 CALM      30.55S
ROLLA          CLOUDY    17   1  49 E7        30.56F WCI   8
OSAGE BEACH    CLOUDY    19   1  45 NE7       30.60R WCI  10
BRANSON        SUNNY     30   1  29 E6        30.53F WCI  24

......SURROUNDING SGF CWA......

CITY           SKY/WX    TMP DP  RH WIND       PRES   REMARKS
CHANUTE        MOSUNNY   30   4  33 E8        30.51F WCI  22
PARSONS        CLOUDY    30   4  33 E8        30.51F WCI  22
COFFEYVILLE    MOSUNNY   32   7  35 E12       30.51F WCI  23
EMPORIA        PTSUNNY   26   2  35 E15       30.48F WCI  14
GROVE OK       MOSUNNY   37   7  28 E9        30.50F WCI  31
ROGERS AR      SUNNY     34   6  31 SE12      30.47F WCI  25
SILOAM SPRINGS SUNNY     37   9  30 E7        30.47F WCI  32
HARRISON AR    SUNNY     32   6  33 E7        30.51F WCI  26
NEAR YELLVILLE SUNNY     32   3  29 E9        30.54F WCI  24

......KANSAS AND MISSOURI......

CITY           SKY/WX    TMP DP  RH WIND       PRES   REMARKS
KANSAS CTY INT CLOUDY    18   2  49 E9        30.57S WCI   7
DOWNTOWN KC    CLOUDY    19   3  49 E10       30.60R WCI   7
COLUMBIA       CLOUDY    17   1  49 NE8       30.61F WCI   7
SEDALIA        CLOUDY    18   2  49 E9        30.61S WCI   7
ST JOSEPH      CLOUDY    17   2  51 E9        30.59F WCI   6
ST LOUIS       MOSUNNY   18  -1  43 N5        30.66F WCI  11
SPIRIT OF STL  SUNNY     18   0  45 N3        30.66F
KIRKSVILLE     CLOUDY    12  -1  56 E6        30.63S WCI   3
WICHITA        PTSUNNY   32   4  30 E10       30.45F WCI  24
TOPEKA         CLOUDY    23   1  38 E8        30.55F WCI  14
OLATHE         CLOUDY    19   1  45 E10       30.55S WCI   7

......TENNESSEE......

CITY           SKY/WX    TMP DP  RH WIND       PRES   REMARKS
MEMPHIS        CLOUDY    33  10  38 NE10      30.59S WCI  25
NASHVILLE      SUNNY     28   3  34 N13       30.56S WCI  17

......ARKANSAS.......

CITY           SKY/WX    TMP DP  RH WIND       PRES   REMARKS
FAYETTEVILLE   SUNNY     37  13  37 E8        30.47F WCI  31
FT SMITH       SUNNY     44  15  31 E15       30.49F
LITTLE ROCK    MOSUNNY   38  11  32 E12       30.59F WCI  30

......OKLAHOMA.......

CITY           SKY/WX    TMP DP  RH WIND       PRES   REMARKS
TULSA          MOSUNNY   39  12  33 E6        30.47F WCI  35
PONCA CITY     SUNNY     35   5  28 E13       30.46F WCI  26
MCALESTER      MOSUNNY   48  27  44 VRB7      30.44F
OKLAHOMA CITY  MOSUNNY   42  23  46 SE8       30.40F

......IOWA............

CITY           SKY/WX    TMP DP  RH WIND       PRES   REMARKS
DES MOINES     PTSUNNY    9  -5  53 E6        30.62F WCI  -1
QUAD CITIES    SUNNY     13  -8  39 VRB7      30.65F WCI   3

......ILLINOIS........

CITY           SKY/WX    TMP DP  RH WIND       PRES   REMARKS
QUINCY         SUNNY     12  -3  51 CALM      30.65F
CHICAGO        MOSUNNY   10  -8  44 NW10      30.59S WCI  -4



USA.gov is the U.S. government's official web portal to all federal, state and local government web resources and services.